Location: Consuma
(43.7833°N, 11.5833°E)
Time: 09:36:13
(UTC+00:00)

H-2A R/B - Pass Details

Date: 17 February 2020
Orbit: 530 x 652 km, 98.3° (Epoch: 29 March)

Event Time Altitude Azimuth Distance (km) Brightness Sun altitude
Rises 03:40:38 0° 17° (NNE) 2,899 6.3 -27.6°
Reaches altitude 10° 03:42:50 10° 21° (NNE) 2,006 5.5 -27.3°
Maximum altitude 03:47:09 58° 101° (E) 743 3.1 -26.5°
Enters shadow 03:48:15 44° 154° (SSE) 884 3.4 -26.3°
